TimePDT,TemperatureF,Dew PointF,Humidity,Sea Level PressureIn,VisibilityMPH,Wind Direction,Wind SpeedMPH,Gust SpeedMPH,PrecipitationIn,Events,Conditions,WindDirDegrees,DateUTC
12:53 AM,75.9,52.0,43,29.75,10.0,Calm,Calm,-,N/A,,Clear,0,2013-09-09 07:53:00
1:53 AM,78.1,51.1,39,29.75,10.0,NW,4.6,-,N/A,,Clear,310,2013-09-09 08:53:00
2:53 AM,78.1,50.0,37,29.74,10.0,NW,3.5,-,N/A,,Clear,320,2013-09-09 09:53:00
3:53 AM,77.0,50.0,39,29.73,10.0,NNW,5.8,-,N/A,,Clear,340,2013-09-09 10:53:00
4:53 AM,66.9,53.1,61,29.73,10.0,SSE,3.5,-,N/A,,Clear,160,2013-09-09 11:53:00
5:53 AM,64.9,54.0,68,29.75,8.0,SSW,4.6,-,N/A,,Clear,200,2013-09-09 12:53:00
6:53 AM,64.0,53.1,67,29.75,6.0,SW,3.5,-,N/A,,Haze,220,2013-09-09 13:53:00
7:53 AM,71.1,53.1,53,29.76,7.0,WSW,3.5,-,N/A,,Clear,240,2013-09-09 14:53:00
8:53 AM,77.0,50.0,39,29.77,10.0,Calm,Calm,-,N/A,,Clear,0,2013-09-09 15:53:00
9:53 AM,79.0,51.1,38,29.77,10.0,Variable,3.5,-,N/A,,Clear,0,2013-09-09 16:53:00
10:53 AM,82.9,54.0,37,29.77,10.0,NW,5.8,-,N/A,,Clear,320,2013-09-09 17:53:00
11:53 AM,87.1,54.0,32,29.75,9.0,WNW,5.8,-,N/A,,Clear,290,2013-09-09 18:53:00
12:53 PM,90.0,54.0,29,29.73,9.0,NW,5.8,-,N/A,,Clear,310,2013-09-09 19:53:00
1:53 PM,93.9,55.9,28,29.71,8.0,NW,10.4,-,N/A,,Clear,310,2013-09-09 20:53:00
2:53 PM,97.0,51.1,21,29.69,9.0,WNW,9.2,-,N/A,,Clear,300,2013-09-09 21:53:00
3:53 PM,97.0,48.9,19,29.66,9.0,NNW,6.9,-,N/A,,Clear,330,2013-09-09 22:53:00
4:53 PM,98.1,48.9,19,29.66,9.0,NNW,8.1,-,N/A,,Clear,330,2013-09-09 23:53:00
5:53 PM,97.0,48.0,19,29.65,7.0,Variable,3.5,-,N/A,,Clear,0,2013-09-10 00:53:00
6:53 PM,93.0,50.0,23,29.65,8.0,Calm,Calm,-,N/A,,Clear,0,2013-09-10 01:53:00
7:53 PM,86.0,51.1,30,29.66,8.0,Calm,Calm,-,N/A,,Clear,0,2013-09-10 02:53:00
8:53 PM,84.9,53.1,33,29.67,10.0,NW,3.5,-,N/A,,Clear,320,2013-09-10 03:53:00
9:53 PM,81.0,53.1,38,29.68,10.0,West,6.9,-,N/A,,Clear,280,2013-09-10 04:53:00
10:53 PM,80.1,54.0,40,29.69,10.0,Calm,Calm,-,N/A,,Clear,0,2013-09-10 05:53:00
11:53 PM,73.9,54.0,50,29.70,9.0,Calm,Calm,-,N/A,,Clear,0,2013-09-10 06:53:00